Вернуться в каталог

OPS 4682 DEB

АктивенPO
NORAD 38363·DEBRIS·🇺🇸 United States

Запущен Apr 3, 1965 с Vandenberg Space Force Base

Loading…

Ближайшие Пролёты (ближайшие 24 часа)

TLE

СвежийSource: Space-Track

Эпоха: Sep 14, 2026, 06:33 UTC

1 38363U 65027BQ  26257.27305696 -.00000621  00000-0 -20472-2 0  9991
2 38363  90.2491  11.6002 0027533 329.5341  30.4181 13.01323137563743

Отслеживайте OPS 4682 DEB в реальном времени с AllMySat

Download on the App Store